SL-14 R/B, 21656

Orbit data source: Space-Track

SL-14 R/B, 21656 is space debris in LEO originally from a launch on Thu, 15 Aug 1991 UTC launched from the Plesetsk Missile And Space Complex (PKMTR). Debris objects in space refer to the collection of defunct objects orbiting the Earth. Examples of debris include non-operational satellites, rocket bodies, and fragments generated from explosions, collisions, or faulty payload assembly.

Loading next visibility...
Identifier
21656, 1991-056B
Orbit
LEO
Country
Flag of CISCIS
Related business
Manufacturer
Yuzhnoe
Mission
Spacecraft
Bus & Motor
S5M, Unknown motor
Mass
1,600 kg wet, 1,600 kg dry
Launch date (UTC)
1991-08-15 (34 years ago)
Launch vehicle
Unknown
Launch site
Plesetsk Missile And Space Complex (PKMTR)
Object type
Payload
Rocket body
Debris
Shape & HBR
Cyl, 1.4 m
Radar Cross Section
7.351 m², Large (>1 m²)

Expand to show TLE details & history
Last TLE update: 8 hours ago

TLE from 8 hours ago
0 SL-14 R/B
1 21656U 91056B   25290.99131194  .00000062  00000-0  12379-3 0  9999
2 21656  82.5438 300.1577 0023849 321.0548  99.2617 13.20275389643450
Epoch: 2025-10-17T23:47Z
TLE epoch observation values (Epoch: 2025-10-17T23:47:29.351Z)
Latitude
59.82899°
Longitude
-70.5°
Altitude
1,196.754 km
Speed
7.26 km/s
True Right ascension
20h 52m 24s
True Declination
59° 41' 17"
Sunlit
Object was in daylight at epoch
Visualization orbit readout
Latitude
Unknown
Longitude
Unknown
Altitude
Unknown
Speed
Unknown
Apparent Right ascension
Unknown
Apparent Declination
Unknown
Sunlit
N/A
Visualization observer readout
Local Sidereal Time
03:00:00
Azimuth
Unknown
Elevation
Unknown
Doppler factor
Unknown
Orbital elements
Apogee altitude
1,198.936 km
Perigee altitude
1,162.881 km
Semi-major axis
7,559.046 km
Eccentricity
0.00238
Inclination
82.5438°
RAAN
300.1577°
Arg. of periapsis
321.0548°
True anomaly
99.5313°
Mean anomaly
99.2617°
Eccentric anomaly
99.39651°
Mean motion
3.3025 °/min
Orbital period
109.01 mins
BSTAR
0.00012379
Loading maneuver chart data...
Computing Atmospheric mass density...
Loading historical data...
Loading historical data...
Loading historical data...
Loading historical data...
Loading historical data...
Loading historical data...
Loading historical data...

Documentation

Showing up to 5 results
|